$Date,$Time,DM0201B,DM0203B,DM0205B,DM0207B,DM0209B
09/10/98,00:00:01,21,152,-31,70,977
09/10/98,00:05:01,31,142,-31,66,977
09/10/98,00:10:01,26,142,-31,62,977
09/10/98,00:15:01,37,142,-31,60,977
09/10/98,00:20:01,37,142,-31,60,977
09/10/98,00:25:01,34,142,-31,58,977
09/10/98,00:30:01,19,122,-31,58,977
09/10/98,00:35:01,19,122,-30,60,977
09/10/98,00:40:01,9,122,-30,62,977
09/10/98,00:45:01,9,122,-30,64,977
09/10/98,00:50:01,9,122,-30,66,977
09/10/98,00:55:01,9,122,-30,68,977
09/10/98,01:00:01,9,122,-31,70,977
09/10/98,01:05:01,9,122,-31,72,977
09/10/98,01:10:01,9,122,-31,76,977
09/10/98,01:15:01,9,136,-31,80,977
09/10/98,01:20:01,9,146,-31,78,977
09/10/98,01:25:01,9,161,-31,84,977
09/10/98,01:30:01,9,161,-31,90,977
09/10/98,01:35:01,9,161,-31,86,977
09/10/98,01:40:01,21,161,-30,72,977
09/10/98,01:45:01,38,161,-30,64,977
09/10/98,01:50:01,28,171,-30,60,977
09/10/98,01:55:01,28,171,-30,62,977
09/10/98,02:00:01,37,171,-30,60,977
09/10/98,02:05:01,17,181,-30,58,977
09/10/98,02:10:01,7,181,-31,58,977
09/10/98,02:15:01,7,181,-31,58,977
09/10/98,02:20:01,7,181,-31,58,977
09/10/98,02:25:01,7,181,-31,58,977
09/10/98,02:30:01,7,181,-31,60,977
09/10/98,02:35:01,7,181,-31,62,977
09/10/98,02:40:01,11,181,-31,62,977
09/10/98,02:45:01,0,181,-31,64,977
09/10/98,02:50:01,35,181,-31,64,977
09/10/98,02:55:01,35,181,-30,60,977
09/10/98,03:00:01,35,181,-30,60,977
09/10/98,03:05:01,35,191,-30,60,977
09/10/98,03:10:01,25,191,-30,60,977
09/10/98,03:15:01,36,201,-30,60,977
09/10/98,03:20:01,24,201,-30,58,977
09/10/98,03:25:01,26,201,-30,56,977
09/10/98,03:30:01,37,201,-30,54,977
09/10/98,03:35:01,6,201,-30,52,977
09/10/98,03:40:01,32,201,-30,48,977
09/10/98,03:45:01,22,211,-30,42,977
09/10/98,03:50:01,45,211,-30,36,977
09/10/98,03:55:01,35,199,-30,32,977
09/10/98,04:00:01,45,199,-30,28,977
09/10/98,04:05:01,45,199,-31,26,977
09/10/98,04:10:01,31,199,-31,24,977
09/10/98,04:15:01,31,209,-31,22,977
09/10/98,04:20:01,61,185,-31,20,977
09/10/98,04:25:01,51,185,-31,18,977
09/10/98,04:30:01,30,185,-31,16,977
09/10/98,04:35:01,40,187,-31,16,977
09/10/98,04:40:01,12,187,-31,14,977
09/10/98,04:45:01,47,187,-31,12,977
09/10/98,04:50:01,24,165,-31,10,977
09/10/98,04:55:01,41,202,-31,10,977
09/10/98,05:00:01,18,191,-31,8,977
09/10/98,05:05:01,33,191,-31,8,977
09/10/98,05:10:01,22,191,-31,6,977
09/10/98,05:15:01,22,191,-30,6,977
09/10/98,05:20:01,22,191,-30,4,977
09/10/98,05:25:01,19,191,-30,4,977
09/10/98,05:30:01,30,185,-30,4,977
09/10/98,05:35:01,43,206,-30,4,977
09/10/98,05:40:01,40,206,-30,4,977
09/10/98,05:45:01,40,206,-30,2,977
09/10/98,05:50:01,29,206,-30,2,977
09/10/98,05:55:01,26,188,-30,2,977
09/10/98,06:00:01,33,188,-30,0,977
09/10/98,06:05:01,32,188,-30,0,977
09/10/98,06:10:01,18,188,-30,0,977
09/10/98,06:15:01,42,188,-30,0,977
09/10/98,06:20:01,44,188,-30,0,977
09/10/98,06:25:01,44,188,-31,0,977
09/10/98,06:30:01,44,188,-31,0,977
09/10/98,06:35:01,12,178,-31,0,977
09/10/98,06:40:01,12,178,-31,0,977
09/10/98,06:45:01,23,169,-31,0,977
09/10/98,06:50:01,55,180,-31,0,977
09/10/98,06:55:01,55,180,-31,0,977
09/10/98,07:00:01,35,180,-31,0,977
09/10/98,07:05:01,12,190,-31,0,977
09/10/98,07:10:01,2,190,-31,0,977
09/10/98,07:15:01,15,44,-31,0,977
09/10/98,07:20:01,20,226,-32,0,977
09/10/98,07:25:01,27,5,-33,0,977
09/10/98,07:30:01,0,354,-33,0,977
09/10/98,07:35:01,0,354,-33,0,977
09/10/98,07:40:01,15,205,-33,0,977
09/10/98,07:45:01,5,205,-33,0,977
09/10/98,07:50:01,0,338,-33,0,977
09/10/98,07:55:01,21,20,-33,0,977
09/10/98,08:00:01,54,16,-33,0,977
09/10/98,08:05:01,35,16,-33,0,977
09/10/98,08:10:01,31,17,-33,0,977
09/10/98,08:15:01,37,7,-33,0,977
09/10/98,08:20:01,47,1,-33,0,977
09/10/98,08:25:01,66,347,-33,0,977
09/10/98,08:30:01,66,1,-33,0,977
09/10/98,08:35:01,54,359,-33,0,977
09/10/98,08:40:01,64,1,-33,0,977
09/10/98,08:45:01,63,1,-33,0,977
09/10/98,08:50:01,58,13,-33,0,977
09/10/98,08:55:01,67,3,-33,0,977
09/10/98,09:00:01,107,17,-33,0,977
09/10/98,09:05:01,58,7,-33,0,977
09/10/98,09:10:01,106,7,-33,0,977
09/10/98,09:15:01,116,7,-33,0,977
09/10/98,09:20:01,77,10,-33,0,977
09/10/98,09:25:01,79,10,-34,0,977
09/10/98,09:30:01,87,10,-34,0,977
09/10/98,09:35:01,100,13,-34,0,977
09/10/98,09:40:01,84,13,-33,0,977
09/10/98,09:45:01,79,6,-33,0,977
09/10/98,09:50:01,73,6,-34,0,977
09/10/98,09:55:01,48,6,-34,0,977
09/10/98,10:00:01,20,18,-34,0,977
09/10/98,10:05:01,14,6,-34,0,977
09/10/98,10:10:01,30,6,-33,0,977
09/10/98,10:15:01,9,6,-33,0,977
09/10/98,10:20:01,9,6,-33,0,977
09/10/98,10:25:01,9,6,-33,0,977
09/10/98,10:30:01,9,6,-33,0,977
09/10/98,10:35:01,9,6,-33,0,977
09/10/98,10:40:01,9,141,-33,0,977
09/10/98,10:45:01,2,181,-33,0,977
09/10/98,10:50:01,13,191,-33,0,977
09/10/98,10:55:01,34,191,-33,0,977
09/10/98,11:00:01,23,194,-33,0,977
09/10/98,11:05:01,6,168,-33,0,977
09/10/98,11:10:01,6,168,-33,0,977
09/10/98,11:15:01,6,168,-33,0,977
09/10/98,11:20:01,22,168,-33,0,977
09/10/98,11:25:01,26,168,-33,0,977
09/10/98,11:30:01,50,168,-32,0,977
09/10/98,11:35:01,62,185,-32,0,977
09/10/98,11:40:01,41,185,-32,0,977
09/10/98,11:45:01,41,185,-32,0,977
09/10/98,11:50:01,31,185,-31,0,977
09/10/98,11:55:01,39,185,-32,0,977
09/10/98,12:00:01,25,185,-32,0,977
09/10/98,12:05:01,43,185,-32,0,977
09/10/98,12:10:01,33,185,-31,0,977
09/10/98,12:15:01,32,185,-31,0,977
09/10/98,12:20:01,26,185,-31,0,977
09/10/98,12:25:01,26,185,-32,0,977
09/10/98,12:30:01,27,185,-32,0,977
09/10/98,12:35:01,37,185,-32,0,977
09/10/98,12:40:01,21,208,-32,0,977
09/10/98,12:45:01,32,208,-32,0,977
09/10/98,12:50:01,16,197,-31,0,977
09/10/98,12:55:01,44,187,-31,0,977
09/10/98,13:00:01,4,224,-31,0,977
09/10/98,13:05:01,25,224,-32,0,977
09/10/98,13:10:01,31,224,-32,0,977
09/10/98,13:15:01,18,224,-32,0,977
09/10/98,13:20:01,28,224,-32,0,977
09/10/98,13:25:01,38,209,-32,0,977
09/10/98,13:30:01,38,209,-32,0,977
09/10/98,13:35:01,37,190,-31,0,977
09/10/98,13:40:01,16,190,-31,0,977
09/10/98,13:45:01,40,211,-31,0,977
09/10/98,13:50:01,27,244,-31,0,977
09/10/98,13:55:01,54,232,-32,0,977
09/10/98,14:00:01,39,218,-31,0,977
09/10/98,14:05:01,41,216,-31,0,977
09/10/98,14:10:01,31,217,-31,0,977
09/10/98,14:15:01,41,217,-31,0,977
09/10/98,14:20:01,27,217,-31,0,977
09/10/98,14:25:01,15,217,-32,0,977
09/10/98,14:30:01,59,207,-32,0,977
09/10/98,14:35:01,31,251,-32,0,977
09/10/98,14:40:01,21,234,-33,0,977
09/10/98,14:45:01,5,278,-33,0,977
09/10/98,14:50:01,8,242,-33,0,977
09/10/98,14:55:01,9,215,-32,0,977
09/10/98,15:00:01,36,187,-32,0,977
09/10/98,15:05:01,20,187,-32,0,977
09/10/98,15:10:01,0,204,-32,0,977
09/10/98,15:15:01,35,217,-32,0,977
09/10/98,15:20:01,24,258,-32,0,977
09/10/98,15:25:01,23,247,-32,0,977
09/10/98,15:30:01,36,221,-32,0,977
09/10/98,15:35:01,26,221,-32,0,977
09/10/98,15:40:01,16,231,-32,0,977
09/10/98,15:45:01,2,215,-32,0,977
09/10/98,15:50:01,8,215,-32,0,977
09/10/98,15:55:01,28,239,-32,0,977
09/10/98,16:00:01,29,276,-32,0,977
09/10/98,16:05:01,16,276,-32,0,977
09/10/98,16:10:01,37,276,-32,0,977
09/10/98,16:15:01,39,263,-32,0,977
09/10/98,16:20:01,54,259,-32,0,977
09/10/98,16:25:01,27,282,-32,0,977
09/10/98,16:30:01,42,270,-32,0,977
09/10/98,16:35:01,45,260,-32,0,977
09/10/98,16:40:01,22,250,-32,0,977
09/10/98,16:45:01,23,250,-32,0,977
09/10/98,16:50:01,33,263,-32,0,977
09/10/98,16:55:01,22,253,-32,0,977
09/10/98,17:00:01,22,253,-32,0,977
09/10/98,17:05:01,35,253,-32,0,977
09/10/98,17:10:01,35,253,-32,0,977
09/10/98,17:15:01,45,253,-32,0,977
09/10/98,17:20:01,33,253,-32,0,977
09/10/98,17:25:01,33,253,-32,0,977
09/10/98,17:30:01,31,253,-32,0,977
09/10/98,17:35:01,31,253,-31,0,977
09/10/98,17:40:01,31,243,-31,0,977
09/10/98,17:45:01,27,294,-32,0,977
09/10/98,17:50:01,18,256,-32,0,977
09/10/98,17:55:01,18,267,-33,0,977
09/10/98,18:00:01,34,297,-33,0,977
09/10/98,18:05:01,69,333,-33,0,977
09/10/98,18:10:01,31,344,-33,0,977
09/10/98,18:15:01,45,347,-33,0,977
09/10/98,18:20:01,49,337,-34,0,977
09/10/98,18:25:01,27,326,-34,0,977
09/10/98,18:30:01,52,337,-34,0,977
09/10/98,18:35:01,52,349,-34,0,977
09/10/98,18:40:01,42,352,-34,0,977
09/10/98,18:45:01,46,13,-34,0,979
09/10/98,18:50:01,78,3,-34,0,979
09/10/98,18:55:01,107,16,-34,0,979
09/10/98,19:00:01,70,5,-34,0,979
09/10/98,19:05:01,76,13,-34,0,979
09/10/98,19:10:01,78,2,-34,0,979
09/10/98,19:15:01,37,8,-34,0,979
09/10/98,19:20:01,69,1,-34,0,979
09/10/98,19:25:01,89,1,-34,0,979
09/10/98,19:30:01,66,13,-34,0,979
09/10/98,19:35:01,87,2,-34,0,979
09/10/98,19:40:01,70,3,-34,0,979
09/10/98,19:45:01,75,353,-33,0,979
09/10/98,19:50:01,84,1,-33,0,979
09/10/98,19:55:01,107,353,-33,0,979
09/10/98,20:00:01,55,359,-33,0,979
09/10/98,20:05:01,63,354,-33,0,979
09/10/98,20:10:01,60,13,-33,2,979
09/10/98,20:15:01,66,6,-34,2,979
09/10/98,20:20:01,15,344,-33,2,979
09/10/98,20:25:01,88,3,-33,2,979
09/10/98,20:30:01,55,16,-33,4,979
09/10/98,20:35:01,77,16,-33,4,979
09/10/98,20:40:01,90,11,-33,6,979
09/10/98,20:45:01,65,14,-33,6,979
09/10/98,20:50:01,77,6,-33,8,979
09/10/98,20:55:01,78,13,-34,8,979
09/10/98,21:00:01,76,1,-34,10,979
09/10/98,21:05:01,89,11,-34,10,979
09/10/98,21:10:01,76,11,-34,12,979
09/10/98,21:15:01,93,11,-34,14,979
09/10/98,21:20:01,71,1,-34,14,979
09/10/98,21:25:01,83,10,-34,16,979
09/10/98,21:30:01,65,10,-34,16,979
09/10/98,21:35:01,72,10,-34,18,979
09/10/98,21:40:01,57,10,-33,18,979
09/10/98,21:45:01,95,10,-34,18,979
09/10/98,21:50:01,75,10,-34,20,979
09/10/98,21:55:01,80,26,-33,20,979
09/10/98,22:00:01,55,4,-33,20,979
09/10/98,22:05:01,23,10,-33,22,979
09/10/98,22:10:01,71,16,-33,24,979
09/10/98,22:15:01,40,6,-33,24,979
09/10/98,22:20:01,66,16,-33,26,979
09/10/98,22:25:01,62,16,-33,26,979
09/10/98,22:30:01,58,3,-33,28,979
09/10/98,22:35:01,57,8,-33,30,979
09/10/98,22:40:01,9,8,-33,30,979
09/10/98,22:45:01,63,8,-33,32,979
09/10/98,22:50:01,56,6,-33,36,979
09/10/98,22:55:01,56,359,-33,36,979
09/10/98,23:00:01,56,2,-33,38,979
09/10/98,23:05:01,41,27,-33,40,979
09/10/98,23:10:01,65,22,-33,42,979
09/10/98,23:15:01,58,10,-33,44,979
09/10/98,23:20:01,69,12,-32,46,979
09/10/98,23:25:01,59,36,-32,48,979
09/10/98,23:30:01,58,41,-32,50,979
09/10/98,23:35:01,51,16,-32,54,979
09/10/98,23:40:01,64,1,-32,54,979
09/10/98,23:45:01,78,12,-32,54,979
09/10/98,23:50:01,68,12,-32,54,979
09/10/98,23:55:01,71,12,-32,54,979
09/11/98,00:00:01,83,3,-32,54,979
